AirNav   Everest Fuels
 
 836 users online  

PS72 Haig-K Heliport
Lionville, Pennsylvania, USA

GOING TO LIONVILLE?


FAA INFORMATION EFFECTIVE 21 MAY 2020

Location

FAA Identifier: PS72
Lat/Long: 40-03-53.3780N 075-36-40.7360W
40-03.889633N 075-36.678933W
40.0648272,-75.6113156
(estimated)
Elevation: 505 ft. / 154 m (estimated)
Variation: 11W (1986)
From city: 2 miles NE of LIONVILLE, PA
Time zone: UTC -4 (UTC -5 during Standard Time)
Zip code: 19425

Heliport Operations

Heliport use: Private use. Permission required prior to landing
Activation date: 04/1986
Control tower: no
ARTCC: NEW YORK CENTER
FSS: WILLIAMSPORT FLIGHT SERVICE STATION
Attendance: UNATNDD
Wind indicator: yes
Segmented circle: yes

Heliport Communications

WX AWOS-3T at OQN (5 nm S): 121.4 ((610) 692-6190)
WX ASOS at PTW (11 nm N): 119.425 (610-495-0823)
WX AWOS-3 at MQS (13 nm SW): 126.25 (610-384-6132)
WX AWOS-3 at LOM (16 nm E): 118.925 (215-646-1068)

Nearby radio navigation aids

VOR radial/distance  VOR name  Freq  Var
MXEr026/9.2MODENA VORTAC113.2009W
PTWr203/9.7POTTSTOWN VORTAC116.5009W
DQOr010/23.2DUPONT VORTAC114.0010W
OODr341/29.4WOODSTOWN VORTAC112.8010W
ETXr183/31.2EAST TEXAS VOR/DME110.2009W
LRPr105/31.4LANCASTER VOR/DME117.3009W
ARDr261/34.2YARDLEY VOR/DME108.2010W

 
NDB name  Hdg/Dist  Freq  Var  ID
AMBLER268/15.427512WING .. -. --.

Heliport Services

Runway Information

Helipad H1

Dimensions: 48 x 48 ft. / 15 x 15 m
Surface: gravel/turf
Operational restrictions: ALL OPERATIONS TO BE FROM/TO NE & NW ONLY.
Traffic pattern: leftleft
Obstructions: 37 ft. tree, 91 ft. from runway

Heliport Ownership and Management from official FAA records

Ownership: Privately-owned
Owner: DANIEL C. KURKJIAN
931 NEW COMEN ROAD
CHESTER SPRINGS, PA 19425
Phone (610) 827-7843
Manager: DANEIL C. KURKJIAN
931 NEW COMEN ROAD
CHESTER SPRINGS, PA 19425
Phone (610) 827-7843

Additional Remarks

FOR CD CTC PHILADELPHIA APCH AT 800-354-9884.

Instrument Procedures

There are no published instrument procedures at PS72.

Some nearby airports with instrument procedures:

KOQN - Brandywine Regional Airport (5 nm S)
KPTW - Heritage Field Airport (11 nm N)
N10 - Perkiomen Valley Airport (12 nm NE)
N47 - Pottstown Municipal Airport (12 nm N)
KMQS - Chester County G O Carlson Airport (13 nm SW)
N57 - New Garden Airport (16 nm SW)
KLOM - Wings Field Airport (16 nm E)
 
Loc | Ops | Rwys | IFR | FBO | Links
Com | Nav | Svcs | Stats | Notes
Area around PS72 (Haig-K Heliport)
 
Road maps at: MapQuest Bing Google
 
Aerial photo
No photo
 
Sectional chart

 
Airport distance calculator
Flying to Haig-K Heliport? Find the distance to fly.

From to PS72

Sunrise and sunset
Times for 06-Jun-2020
 Local
(UTC-4)
 Zulu
(UTC)
Morning civil twilight05:0209:02
Sunrise05:3409:34
Sunset20:2800:28
Evening civil twilight21:0101:01

Current date and time
Zulu (UTC)  06-Jun-2020 12:54:48
Local (UTC-4)  06-Jun-2020 08:54:48
 
METAR
KOQN 
5nm S 
061235Z AUTO 29004KT 7SM OVC006 22/20 A2986 RMK AO2
KPTW 
10nm N 
061230Z AUTO VRB04KT 5SM BR OVC011 22/21 A2986 RMK AO2 T02220206
KMQS 
13nm SW 
061235Z AUTO 29007KT 2 1/2SM BR BKN006 OVC009 22/21 A2988 RMK AO2
KLOM 
16nm E 
061235Z AUTO 28006KT 5SM BR OVC007 22/21 A2984 RMK AO2 T02240212
TAF
KPHL 
21nm SE 
061136Z 0612/0718 27005KT P6SM SCT006 TEMPO 0612/0613 4SM BR BKN006 FM061300 26008KT P6SM SCT040 FM061700 27010G20KT P6SM SCT050 TEMPO 0621/0623 SHRA BKN035 FM062300 32010G20KT P6SM SCT050 FM070400 33008KT P6SM SKC FM071300 34012G20KT P6SM SCT060
KILG 
24nm S 
061136Z 0612/0712 27005KT P6SM SCT006 TEMPO 0612/0613 2SM BR BKN006 FM061300 27008KT P6SM SCT040 FM061700 27010G20KT P6SM SCT050 TEMPO 0621/0623 SHRA BKN035 FM062300 32010G20KT P6SM SCT050 FM070400 33008KT P6SM SKC
KRDG 
24nm NW 
061136Z 0612/0712 26004KT 4SM BR OVC006 TEMPO 0612/0613 1SM BR OVC002 FM061300 28004KT 4SM BR BKN010 FM061500 28006KT P6SM SCT040 FM061700 29010G20KT P6SM SCT050 TEMPO 0619/0621 SHRA BKN035 FM062100 32010G20KT P6SM SCT050 FM070200 32008KT P6SM SKC AMD NOT SKED
NOTAMs
Click for the latest NOTAMs
NOTAMs are issued by the DoD/FAA and will open in a separate window not controlled by AirNav.

 

 
 

Would you like to see your business listed on this page?

 If your business provides an interesting product or service to pilots, flight crews, aircraft, or users of the Haig-K Heliport, you should consider listing it here.  To start the listing process, click on the button below
 
Add a business
 

Other Pages about Haig-K Heliport

Update a link
 
Copyright © AirNav, LLC. All rights reserved. Privacy Policy  Contact